Lid_Strength_Index
13 13 12 12 11 11 14 14 15 14 14 11 10 9 7 8 7 6 6 6 7 6 5 5 4 4 3 3 4 4 2 2 2 2 1 1 1 1 1 1 1 1 2 2
14 12 11 11 10 11 12 12 11 11 13 9 8 8 8 7 7 7 7 6 5 5 4 4 4 4 3 3 3 3 4 4 2 2 2 2 3 2 1 1 2 2 2 2
15 13 12 13 12 11 11 11 10 13 11 9 9 8 8 7 7 7 6 6 5 5 4 4 3 3 3 3 3 3 3 3 3 3 4 3 3 4 4 3 1 2 2 2
15 14 16 11 10 9 10 9 9 9 9 8 8 7 7 6 6 6 5 5 5 4 4 3 3 3 3 2 3 3 3 3 4 4 4 4 3 2 4 3 2 2 2 2
15 15 13 11 9 9 10 12 9 9 8 7 7 8 8 5 5 5 5 4 4 3 3 3 3 3 3 3 3 3 3 3 3 3 3 3 2 2 3 4 2 2 3 4
16 16 16 12 9 7 8 13 8 8 8 7 8 11 9 6 5 5 4 4 4 3 3 3 3 2 3 3 3 3 3 3 3 3 3 3 3 2 3 3 2 1 3 4
15 15 13 10 8 8 13 12 7 7 8 9 9 9 7 5 5 4 4 4 3 3 3 3 2 3 4 3 3 2 2 2 3 3 4 3 3 3 3 2 3 3 2 4
15 15 15 8 8 10 9 8 7 8 8 8 8 8 7 6 6 5 5 4 4 4 4 3 3 4 4 3 2 2 2 2 2 3 3 3 2 2 2 2 3 2 2 2
12 12 9 9 9 8 8 8 8 8 8 7 7 7 6 6 6 5 5 5 4 5 5 4 3 3 3 3 2 2 3 3 2 2 3 3 3 3 2 2 3 4 4 5
11 9 9 8 8 8 7 7 7 7 7 6 7 7 7 7 6 5 5 6 6 7 7 6 5 4 3 2 2 2 3 3 3 3 3 3 4 3 3 4 4 4 5 4
11 9 8 7 7 6 6 6 6 6 6 6 6 7 7 6 6 6 6 6 6 6 6 5 5 4 4 3 2 3 3 2 3 2 3 4 4 5 3 2 3 3 3 3
11 9 8 8 6 6 6 6 6 6 6 6 6 6 6 7 7 7 6 6 6 6 6 5 4 4 4 4 4 4 4 3 2 2 2 2 3 2 5 6 6 7 9 5
8 8 7 6 6 6 6 6 6 6 6 7 7 7 7 7 7 6 6 6 6 5 5 5 5 5 5 5 5 6 6 5 4 4 3 3 3 3 4 5 7 8 10 10
7 6 8 7 7 6 5 6 6 6 6 6 6 7 6 5 6 6 7 6 5 5 5 5 6 6 5 5 6 6 5 6 5 5 4 3 3 3 3 5 5 5 6 8
6 6 6 6 6 7 6 6 7 7 6 6 6 5 5 6 7 7 6 5 5 6 6 6 6 6 5 5 6 5 5 5 5 5 5 4 3 3 3 3 4 5 5 7
6 6 7 6 7 7 7 7 7 7 6 5 5 5 5 6 7 7 6 6 7 7 7 6 6 5 5 5 6 5 4 4 5 5 5 4 4 3 3 3 3 3 4 4
7 8 8 8 8 8 8 7 7 5 5 5 5 5 6 7 7 7 7 6 7 7 6 6 5 3 3 4 4 3 3 5 4 3 4 3 3 3 3 3 3 3 3 3
6 5 6 6 7 8 7 6 5 5 5 5 5 5 7 8 7 7 7 6 6 6 6 4 4 2 2 2 4 3 5 5 4 4 3 3 3 3 4 3 3 4 4 5
6 7 6 6 6 7 6 5 5 4 5 5 6 7 8 7 6 7 7 7 7 7 5 4 2 2 2 1 1 1 2 2 2 3 4 4 3 2 3 3 3 3 4 4
6 6 7 7 6 6 5 4 5 5 6 6 7 8 8 7 7 7 6 6 5 5 5 4 3 3 3 1 1 1 2 2 2 2 3 4 4 3 3 5 3 3 3 3
7 7 7 7 6 5 4 4 5 6 6 7 8 8 7 6 6 6 6 6 5 4 4 2 3 3 3 1 1 1 2 2 2 2 3 4 4 3 4 3 3 3 3 3
7 7 6 5 5 5 5 5 5 6 8 8 7 6 6 7 6 6 5 5 5 4 3 4 3 2 2 1 2 2 2 2 2 2 2 2 3 3 4 4 4 3 3 3
6 6 5 5 5 5 5 5 6 7 7 6 6 6 6 6 5 5 5 4 5 4 4 4 3 2 1 3 3 3 3 3 2 2 2 2 2 2 2 2 2 2 2 2
6 6 6 5 5 5 6 6 6 6 5 6 6 6 5 5 5 4 4 4 4 4 4 3 3 2 2 3 3 4 3 3 3 2 2 4 2 2 2 2 2 2 2 2
5 6 5 5 5 5 6 6 5 4 6 6 5 4 5 5 4 4 4 3 3 3 2 2 1 2 3 4 3 3 3 3 2 2 2 2 2 2 2 2 2 2 3 3
5 5 5 6 5 6 6 4 4 5 5 5 5 4 4 4 5 5 4 4 2 3 3 3 4 5 3 5 5 4 3 3 3 3 4 4 4 4 4 3 3 2 3 3
6 7 6 6 6 5 3 4 4 5 4 4 4 4 4 3 3 4 5 3 2 3 6 6 6 5 5 4 5 5 5 5 6 4 4 5 6 7 7 7 7 7 6 5